sat.trackr.live / text

‹ back to catalog

STARLINK-5998

NORAD 56468 · 2023-064W

PAYLOAD ACTIVE UNKNOWN

§ Identity

Operator
Country
US
Launch date
2023-05-10
Launch site
AFWTR
Launch vehicle
Mass (kg)
RCS (m²)

Purposes: comms

External: N2YO · Heavens-Above · Gunter

§ Orbital elements

Epoch: 2026-05-24T21:11:54.165120Z

Period
96.11 min
Inclination
69.9988°
Eccentricity
0.0002828
Mean motion
14.98333595 rev/d
Perigee alt
570.1 km
Apogee alt
574.0 km
Semi-major
6,950.2 km
B*
8.1985e-5
RAAN
312.1596°
Arg perigee
266.8548°
Mean anomaly
93.2287°
Rev number
16,666

§ Raw data

STARLINK-59981 56468U 23064W   26144.88326580  .00000885  00000+0  81985-4 0  99962 56468  69.9988 312.1596 0002828 266.8548  93.2287 14.98333595166662

JSON: /api/v1/satellites/56468 · /tle

For live sub-satellite position, see the globe view (requires WebGL).

§ Visibility from observer

Set your observer location to see the next 7 days of passes ≥ 10°. The values pass through the URL so the page stays shareable.

No JS? Fill the form by hand. The geolocation button needs JavaScript.